QPF
0.01 0.02 0.02 0.02 0.03 0.03 0.03 0.03 0.03 0.05 0.07 0.08 0.06 0.05 0.08 0.11 0.11 0.10 0.08 0.09 0.09 0.07 0.05 0.04 0.03 0.04 0.04 0.05 0.04 0.04 0.05 0.05 0.06 0.08 0.10 0.11 0.11 0.10
0.01 0.01 0.01 0.02 0.02 0.03 0.03 0.03 0.03 0.03 0.04 0.04 0.04 0.04 0.05 0.06 0.08 0.06 0.05 0.06 0.06 0.05 0.04 0.03 0.02 0.02 0.02 0.03 0.02 0.02 0.03 0.03 0.04 0.04 0.04 0.04 0.08 0.11
0.02 0.01 0.01 0.01 0.01 0.02 0.03 0.03 0.05 0.05 0.04 0.03 0.04 0.05 0.04 0.03 0.05 0.04 0.03 0.05 0.07 0.06 0.05 0.03 0.03 0.02 0.02 0.02 0.02 0.01 0.01 0.02 0.03 0.03 0.03 0.03 0.02 0.04
0.01 0.01 0.01 0.02 0.01 0.02 0.02 0.03 0.04 0.03 0.02 0.02 0.05 0.05 0.04 0.03 0.02 0.03 0.03 0.03 0.04 0.06 0.06 0.05 0.04 0.03 0.02 0.02 0.02 0.01 0.01 0.01 0.02 0.03 0.03 0.03 0.02 0.02
0.01 0.01 0.01 0.02 0.02 0.02 0.02 0.02 0.03 0.02 0.03 0.03 0.04 0.05 0.04 0.04 0.03 0.03 0.03 0.05 0.04 0.04 0.05 0.05 0.04 0.03 0.02 0.01 0.01 0.01 0.01 0.01 0.01 0.01 0.02 0.02 0.02 0.02
0.01 0.01 0.02 0.01 0.02 0.02 0.02 0.02 0.02 0.03 0.04 0.05 0.05 0.04 0.03 0.04 0.04 0.04 0.03 0.04 0.05 0.04 0.05 0.04 0.04 0.03 0.03 0.02 0.02 0.01 0.01 0.01 0.01 0.00 0.01 0.01 0.02 0.02
0.01 0.01 0.02 0.02 0.02 0.02 0.02 0.03 0.03 0.04 0.04 0.06 0.06 0.05 0.04 0.04 0.05 0.05 0.04 0.03 0.03 0.04 0.04 0.04 0.04 0.03 0.03 0.02 0.02 0.01 0.01 0.02 0.01 0.00 0.00 0.01 0.01 0.01
0.01 0.01 0.02 0.02 0.02 0.03 0.03 0.03 0.03 0.04 0.04 0.03 0.03 0.04 0.04 0.05 0.05 0.05 0.05 0.03 0.02 0.02 0.02 0.03 0.04 0.04 0.03 0.02 0.02 0.02 0.02 0.02 0.02 0.01 0.01 0.01 0.01 0.00
0.01 0.01 0.01 0.02 0.03 0.04 0.04 0.03 0.02 0.03 0.03 0.03 0.02 0.02 0.05 0.04 0.03 0.03 0.04 0.04 0.02 0.01 0.01 0.01 0.03 0.05 0.04 0.03 0.03 0.02 0.02 0.02 0.02 0.02 0.02 0.01 0.01 0.01
0.01 0.01 0.01 0.01 0.03 0.04 0.05 0.03 0.01 0.02 0.02 0.02 0.01 0.01 0.03 0.04 0.02 0.02 0.02 0.03 0.02 0.01 0.01 0.01 0.01 0.03 0.04 0.05 0.05 0.04 0.03 0.02 0.02 0.02 0.02 0.01 0.01 0.02
0.02 0.01 0.01 0.01 0.02 0.04 0.04 0.03 0.02 0.02 0.02 0.02 0.02 0.02 0.03 0.04 0.05 0.04 0.03 0.02 0.02 0.01 0.00 0.00 0.00 0.01 0.02 0.04 0.06 0.06 0.06 0.04 0.03 0.03 0.02 0.01 0.01 0.02
0.01 0.01 0.01 0.01 0.02 0.02 0.02 0.03 0.03 0.02 0.02 0.02 0.02 0.02 0.03 0.03 0.05 0.05 0.03 0.02 0.02 0.01 0.00 0.01 0.01 0.02 0.02 0.02 0.03 0.05 0.05 0.05 0.05 0.04 0.03 0.03 0.02 0.01
0.03 0.02 0.02 0.02 0.03 0.03 0.03 0.03 0.04 0.05 0.04 0.04 0.03 0.02 0.02 0.04 0.04 0.03 0.04 0.03 0.01 0.01 0.01 0.01 0.01 0.02 0.02 0.02 0.02 0.04 0.05 0.05 0.05 0.04 0.04 0.04 0.03 0.02
0.03 0.03 0.03 0.04 0.05 0.05 0.06 0.06 0.07 0.07 0.05 0.05 0.05 0.04 0.03 0.03 0.04 0.03 0.04 0.04 0.02 0.01 0.01 0.01 0.02 0.02 0.02 0.02 0.02 0.02 0.05 0.05 0.05 0.04 0.04 0.04 0.03 0.02
0.02 0.03 0.02 0.03 0.03 0.03 0.03 0.04 0.05 0.04 0.05 0.05 0.04 0.03 0.03 0.02 0.03 0.04 0.04 0.05 0.03 0.01 0.01 0.01 0.01 0.02 0.03 0.03 0.03 0.02 0.02 0.03 0.04 0.03 0.03 0.03 0.03 0.03
0.02 0.03 0.02 0.02 0.02 0.03 0.03 0.02 0.02 0.03 0.03 0.03 0.02 0.02 0.02 0.02 0.03 0.04 0.05 0.05 0.05 0.02 0.01 0.01 0.02 0.02 0.03 0.03 0.03 0.02 0.01 0.01 0.02 0.03 0.03 0.02 0.02 0.02
0.03 0.02 0.02 0.02 0.02 0.02 0.02 0.02 0.02 0.02 0.02 0.01 0.01 0.02 0.02 0.03 0.03 0.04 0.06 0.06 0.06 0.05 0.03 0.02 0.02 0.03 0.03 0.04 0.04 0.02 0.01 0.01 0.01 0.03 0.04 0.04 0.03 0.02
0.03 0.03 0.02 0.02 0.01 0.01 0.01 0.01 0.01 0.02 0.02 0.01 0.01 0.02 0.03 0.04 0.03 0.04 0.06 0.07 0.07 0.07 0.06 0.04 0.03 0.03 0.03 0.05 0.04 0.03 0.02 0.01 0.01 0.02 0.03 0.04 0.04 0.03
0.03 0.02 0.02 0.01 0.01 0.01 0.01 0.01 0.01 0.01 0.02 0.02 0.02 0.02 0.03 0.04 0.04 0.05 0.06 0.07 0.07 0.07 0.07 0.06 0.04 0.03 0.03 0.03 0.03 0.03 0.03 0.03 0.02 0.02 0.03 0.03 0.03 0.03
0.02 0.02 0.03 0.02 0.02 0.02 0.02 0.02 0.01 0.02 0.02 0.02 0.02 0.03 0.04 0.05 0.06 0.05 0.07 0.06 0.06 0.07 0.07 0.05 0.04 0.03 0.03 0.02 0.02 0.01 0.02 0.02 0.02 0.02 0.02 0.03 0.03 0.04
0.01 0.02 0.03 0.03 0.02 0.02 0.02 0.02 0.02 0.02 0.03 0.03 0.03 0.03 0.04 0.04 0.05 0.06 0.07 0.07 0.06 0.05 0.06 0.06 0.05 0.04 0.03 0.02 0.02 0.01 0.01 0.01 0.01 0.02 0.03 0.04 0.04 0.04
0.03 0.03 0.02 0.02 0.02 0.01 0.02 0.02 0.02 0.02 0.02 0.03 0.04 0.04 0.04 0.04 0.05 0.05 0.05 0.05 0.05 0.05 0.04 0.05 0.05 0.05 0.04 0.04 0.04 0.03 0.03 0.02 0.02 0.03 0.04 0.04 0.04 0.05
0.05 0.04 0.03 0.02 0.02 0.03 0.03 0.03 0.03 0.03 0.02 0.03 0.03 0.03 0.04 0.04 0.05 0.06 0.05 0.05 0.06 0.06 0.06 0.06 0.06 0.06 0.07 0.08 0.07 0.05 0.04 0.03 0.03 0.03 0.03 0.05 0.05 0.05
MSLP
1016.43 1016.63 1016.88 1017.16 1017.44 1017.68 1017.88 1017.99 1018.03 1017.98 1017.85 1017.65 1017.41 1017.13 1016.83 1016.53 1016.24 1015.98 1015.75 1015.56 1015.42 1015.30 1015.22 1015.14 1015.04 1014.92 1014.75 1014.53 1014.24 1013.91 1013.55 1013.18 1012.81 1012.47 1012.17 1011.92 1011.73 1011.59
1016.48 1016.66 1016.88 1017.13 1017.38 1017.60 1017.78 1017.90 1017.95 1017.92 1017.82 1017.66 1017.45 1017.20 1016.92 1016.63 1016.33 1016.06 1015.81 1015.60 1015.43 1015.31 1015.23 1015.17 1015.11 1015.04 1014.94 1014.78 1014.57 1014.31 1014.00 1013.66 1013.30 1012.95 1012.60 1012.28 1012.00 1011.76
1016.57 1016.74 1016.94 1017.15 1017.37 1017.57 1017.74 1017.85 1017.92 1017.92 1017.86 1017.75 1017.58 1017.36 1017.11 1016.82 1016.52 1016.22 1015.93 1015.68 1015.47 1015.32 1015.21 1015.15 1015.10 1015.07 1015.02 1014.92 1014.79 1014.59 1014.34 1014.05 1013.72 1013.37 1013.00 1012.64 1012.30 1011.98
1016.68 1016.84 1017.03 1017.21 1017.40 1017.58 1017.73 1017.85 1017.93 1017.96 1017.95 1017.88 1017.76 1017.59 1017.36 1017.09 1016.78 1016.45 1016.13 1015.82 1015.56 1015.36 1015.21 1015.12 1015.07 1015.04 1015.01 1014.96 1014.87 1014.73 1014.54 1014.29 1014.00 1013.66 1013.31 1012.93 1012.55 1012.19
1016.77 1016.94 1017.10 1017.27 1017.43 1017.58 1017.72 1017.83 1017.93 1018.00 1018.03 1018.01 1017.94 1017.81 1017.62 1017.37 1017.06 1016.72 1016.37 1016.03 1015.71 1015.45 1015.25 1015.11 1015.03 1014.98 1014.94 1014.90 1014.84 1014.73 1014.57 1014.36 1014.10 1013.79 1013.45 1013.08 1012.71 1012.32
1016.78 1016.95 1017.10 1017.25 1017.38 1017.51 1017.64 1017.75 1017.86 1017.95 1018.02 1018.05 1018.04 1017.96 1017.81 1017.60 1017.31 1016.98 1016.62 1016.25 1015.90 1015.60 1015.34 1015.15 1015.02 1014.92 1014.85 1014.79 1014.71 1014.60 1014.44 1014.25 1014.00 1013.72 1013.41 1013.07 1012.71 1012.34
1016.67 1016.83 1016.97 1017.10 1017.21 1017.32 1017.43 1017.54 1017.66 1017.77 1017.87 1017.95 1017.98 1017.96 1017.87 1017.71 1017.47 1017.18 1016.83 1016.47 1016.11 1015.78 1015.49 1015.25 1015.06 1014.90 1014.78 1014.66 1014.53 1014.39 1014.21 1013.99 1013.75 1013.48 1013.19 1012.88 1012.56 1012.23
1016.41 1016.55 1016.68 1016.79 1016.89 1016.98 1017.08 1017.19 1017.31 1017.43 1017.56 1017.67 1017.76 1017.79 1017.77 1017.67 1017.50 1017.26 1016.97 1016.64 1016.30 1015.98 1015.67 1015.40 1015.16 1014.95 1014.76 1014.57 1014.37 1014.16 1013.93 1013.68 1013.41 1013.13 1012.85 1012.57 1012.28 1011.99
1016.02 1016.15 1016.26 1016.35 1016.44 1016.52 1016.61 1016.71 1016.83 1016.97 1017.11 1017.26 1017.38 1017.47 1017.51 1017.48 1017.39 1017.22 1017.01 1016.75 1016.46 1016.17 1015.88 1015.60 1015.33 1015.08 1014.82 1014.56 1014.29 1014.00 1013.70 1013.38 1013.07 1012.76 1012.47 1012.19 1011.93 1011.67
1015.54 1015.66 1015.75 1015.84 1015.92 1016.00 1016.08 1016.18 1016.30 1016.44 1016.59 1016.75 1016.91 1017.03 1017.12 1017.16 1017.15 1017.07 1016.94 1016.76 1016.55 1016.32 1016.07 1015.82 1015.55 1015.28 1014.98 1014.67 1014.33 1013.96 1013.59 1013.20 1012.83 1012.47 1012.15 1011.85 1011.59 1011.34
1015.06 1015.16 1015.25 1015.33 1015.41 1015.49 1015.58 1015.68 1015.79 1015.93 1016.08 1016.24 1016.41 1016.56 1016.68 1016.77 1016.82 1016.82 1016.77 1016.68 1016.55 1016.40 1016.22 1016.02 1015.78 1015.52 1015.22 1014.88 1014.49 1014.08 1013.64 1013.19 1012.75 1012.34 1011.96 1011.62 1011.32 1011.06
1014.63 1014.72 1014.81 1014.90 1014.98 1015.07 1015.17 1015.27 1015.38 1015.50 1015.64 1015.79 1015.95 1016.10 1016.23 1016.35 1016.44 1016.49 1016.51 1016.50 1016.46 1016.39 1016.28 1016.15 1015.98 1015.76 1015.48 1015.15 1014.76 1014.32 1013.84 1013.35 1012.85 1012.38 1011.94 1011.54 1011.20 1010.89
1014.28 1014.37 1014.47 1014.57 1014.67 1014.77 1014.87 1014.97 1015.07 1015.18 1015.30 1015.43 1015.56 1015.69 1015.82 1015.93 1016.03 1016.11 1016.18 1016.22 1016.25 1016.25 1016.23 1016.18 1016.09 1015.94 1015.72 1015.44 1015.08 1014.65 1014.17 1013.65 1013.11 1012.59 1012.08 1011.63 1011.22 1010.86
1014.01 1014.11 1014.22 1014.34 1014.45 1014.57 1014.67 1014.77 1014.87 1014.96 1015.05 1015.15 1015.25 1015.34 1015.44 1015.53 1015.62 1015.70 1015.78 1015.86 1015.94 1016.01 1016.06 1016.09 1016.08 1016.02 1015.89 1015.68 1015.39 1015.01 1014.55 1014.03 1013.48 1012.92 1012.37 1011.85 1011.38 1010.95
1013.79 1013.90 1014.03 1014.16 1014.28 1014.41 1014.52 1014.61 1014.70 1014.78 1014.84 1014.91 1014.97 1015.03 1015.09 1015.15 1015.21 1015.28 1015.36 1015.45 1015.56 1015.67 1015.79 1015.89 1015.97 1016.00 1015.97 1015.85 1015.64 1015.33 1014.92 1014.44 1013.89 1013.32 1012.73 1012.17 1011.64 1011.16
1013.57 1013.70 1013.83 1013.97 1014.10 1014.22 1014.33 1014.42 1014.50 1014.56 1014.61 1014.65 1014.69 1014.72 1014.75 1014.79 1014.82 1014.87 1014.94 1015.04 1015.15 1015.30 1015.46 1015.62 1015.77 1015.89 1015.95 1015.93 1015.81 1015.58 1015.24 1014.81 1014.29 1013.72 1013.13 1012.53 1011.96 1011.44
1013.34 1013.47 1013.60 1013.73 1013.84 1013.95 1014.04 1014.12 1014.19 1014.24 1014.29 1014.33 1014.36 1014.38 1014.41 1014.43 1014.46 1014.50 1014.56 1014.65 1014.78 1014.94 1015.14 1015.35 1015.56 1015.75 1015.89 1015.95 1015.91 1015.77 1015.50 1015.12 1014.65 1014.10 1013.51 1012.91 1012.32 1011.77
1013.08 1013.20 1013.30 1013.40 1013.49 1013.56 1013.63 1013.69 1013.74 1013.79 1013.85 1013.90 1013.94 1013.99 1014.03 1014.07 1014.12 1014.17 1014.25 1014.35 1014.50 1014.67 1014.89 1015.14 1015.39 1015.63 1015.83 1015.96 1016.00 1015.92 1015.72 1015.40 1014.97 1014.46 1013.88 1013.29 1012.70 1012.15
1012.82 1012.90 1012.96 1013.01 1013.04 1013.07 1013.09 1013.12 1013.16 1013.21 1013.27 1013.35 1013.44 1013.53 1013.62 1013.71 1013.80 1013.90 1014.01 1014.15 1014.32 1014.52 1014.76 1015.04 1015.32 1015.60 1015.84 1016.02 1016.11 1016.08 1015.94 1015.66 1015.28 1014.80 1014.26 1013.69 1013.11 1012.57
1012.58 1012.60 1012.59 1012.57 1012.53 1012.49 1012.46 1012.44 1012.46 1012.51 1012.59 1012.70 1012.84 1012.99 1013.16 1013.32 1013.48 1013.65 1013.83 1014.02 1014.23 1014.48 1014.75 1015.05 1015.36 1015.66 1015.94 1016.15 1016.27 1016.29 1016.18 1015.96 1015.62 1015.18 1014.68 1014.14 1013.59 1013.08
1012.38 1012.33 1012.24 1012.13 1012.00 1011.88 1011.78 1011.71 1011.70 1011.74 1011.83 1011.98 1012.17 1012.39 1012.63 1012.89 1013.14 1013.39 1013.65 1013.91 1014.19 1014.49 1014.81 1015.15 1015.49 1015.82 1016.11 1016.35 1016.51 1016.56 1016.49 1016.31 1016.01 1015.62 1015.16 1014.67 1014.17 1013.69
1012.24 1012.10 1011.92 1011.71 1011.49 1011.28 1011.10 1010.98 1010.92 1010.94 1011.04 1011.21 1011.44 1011.73 1012.05 1012.38 1012.73 1013.07 1013.42 1013.77 1014.13 1014.49 1014.87 1015.25 1015.64 1016.00 1016.33 1016.60 1016.79 1016.88 1016.85 1016.72 1016.47 1016.14 1015.74 1015.30 1014.85 1014.42
1012.13 1011.91 1011.63 1011.33 1011.01 1010.72 1010.46 1010.27 1010.17 1010.16 1010.25 1010.43 1010.69 1011.02 1011.39 1011.80 1012.22 1012.66 1013.09 1013.52 1013.96 1014.41 1014.85 1015.30 1015.74 1016.16 1016.53 1016.85 1017.08 1017.22 1017.25 1017.17 1016.99 1016.72 1016.39 1016.02 1015.63 1015.27
Thickness
5700 5700 5699 5698 5698 5697 5695 5693 5688 5684 5686 5691 5694 5697 5697 5697 5697 5696 5695 5695 5694 5693 5692 5691 5690 5689 5687 5686 5686 5685 5684 5683 5682 5681 5680 5679 5678 5677
5696 5695 5694 5694 5693 5693 5692 5690 5688 5685 5682 5686 5689 5692 5692 5692 5692 5691 5691 5690 5690 5689 5688 5687 5686 5685 5683 5681 5681 5680 5679 5678 5678 5676 5675 5675 5674 5673
5691 5690 5689 5689 5689 5688 5687 5686 5684 5683 5680 5682 5685 5687 5687 5686 5687 5686 5686 5685 5685 5685 5684 5683 5682 5681 5679 5678 5677 5676 5675 5674 5674 5673 5672 5671 5670 5669
5685 5685 5684 5685 5683 5683 5682 5681 5680 5680 5678 5676 5678 5680 5681 5682 5682 5681 5681 5681 5681 5681 5680 5679 5678 5676 5675 5674 5673 5672 5671 5670 5669 5668 5667 5666 5665 5664
5681 5680 5679 5679 5678 5677 5677 5676 5676 5676 5674 5673 5672 5673 5674 5675 5675 5675 5676 5675 5676 5676 5676 5675 5674 5672 5671 5669 5668 5667 5666 5665 5664 5663 5662 5661 5660 5659
5677 5676 5675 5674 5673 5672 5671 5670 5670 5669 5668 5667 5666 5666 5666 5668 5668 5667 5666 5668 5669 5671 5670 5670 5669 5668 5666 5665 5664 5662 5661 5660 5659 5658 5657 5656 5655 5654
5672 5671 5671 5671 5670 5669 5667 5665 5664 5662 5661 5660 5659 5659 5659 5659 5659 5660 5659 5660 5661 5663 5663 5663 5662 5662 5661 5659 5658 5657 5656 5655 5654 5653 5652 5651 5650 5649
5666 5666 5666 5666 5665 5664 5663 5662 5660 5658 5655 5654 5652 5652 5653 5653 5654 5654 5652 5651 5651 5655 5655 5655 5656 5655 5655 5654 5653 5653 5652 5650 5649 5648 5647 5646 5644 5643
5661 5660 5661 5661 5659 5658 5657 5656 5656 5655 5654 5652 5649 5648 5649 5649 5648 5647 5646 5645 5645 5648 5647 5647 5648 5647 5649 5649 5648 5647 5646 5645 5644 5643 5642 5641 5639 5638
5656 5655 5654 5654 5654 5652 5650 5649 5648 5649 5649 5648 5648 5647 5646 5645 5644 5643 5641 5641 5641 5641 5641 5639 5640 5641 5643 5643 5642 5642 5641 5640 5639 5638 5637 5635 5634 5632
5651 5651 5650 5649 5649 5647 5645 5642 5642 5643 5644 5644 5643 5642 5642 5641 5639 5637 5634 5632 5632 5633 5634 5633 5634 5634 5635 5636 5637 5636 5635 5634 5633 5632 5630 5628 5627 5625
5646 5646 5646 5644 5643 5642 5640 5637 5636 5637 5637 5636 5635 5635 5635 5635 5634 5632 5631 5627 5625 5625 5629 5628 5627 5626 5626 5629 5629 5629 5628 5627 5626 5624 5623 5621 5620 5618
5639 5639 5639 5639 5638 5636 5635 5634 5633 5632 5630 5629 5628 5628 5629 5628 5628 5628 5627 5625 5622 5622 5624 5623 5621 5619 5618 5619 5620 5621 5620 5619 5618 5617 5616 5614 5613 5612
5633 5633 5633 5632 5630 5630 5629 5629 5628 5626 5624 5622 5621 5621 5621 5622 5623 5623 5623 5622 5622 5621 5621 5619 5616 5614 5612 5611 5611 5612 5612 5611 5610 5609 5609 5608 5606 5605
5628 5627 5626 5625 5623 5622 5623 5622 5621 5619 5616 5615 5614 5615 5616 5617 5617 5617 5617 5617 5617 5616 5616 5615 5613 5610 5608 5606 5605 5604 5603 5604 5603 5602 5602 5601 5600 5599
5620 5620 5619 5617 5616 5616 5615 5615 5613 5612 5610 5609 5609 5610 5610 5610 5610 5610 5610 5609 5608 5608 5610 5610 5609 5606 5603 5602 5600 5599 5597 5596 5596 5595 5594 5594 5594 5593
5613 5611 5609 5608 5607 5607 5607 5607 5606 5605 5604 5603 5602 5603 5603 5603 5603 5603 5603 5602 5601 5600 5601 5602 5603 5602 5600 5597 5595 5594 5593 5591 5590 5589 5587 5586 5587 5587
5605 5603 5601 5600 5600 5599 5599 5599 5599 5599 5598 5598 5597 5597 5597 5596 5596 5596 5596 5595 5594 5595 5595 5595 5593 5592 5590 5591 5591 5590 5588 5586 5585 5583 5581 5580 5581 5582
5598 5596 5594 5594 5593 5593 5593 5593 5593 5593 5593 5592 5591 5591 5591 5590 5590 5590 5590 5589 5589 5589 5589 5588 5587 5585 5582 5582 5585 5585 5583 5581 5579 5577 5576 5575 5575 5577
5592 5591 5589 5589 5588 5587 5587 5587 5587 5587 5586 5586 5585 5585 5584 5584 5584 5584 5584 5584 5583 5583 5582 5582 5581 5580 5579 5578 5578 5578 5578 5576 5574 5572 5570 5570 5569 5570
5586 5585 5584 5583 5583 5582 5581 5581 5580 5580 5580 5579 5579 5579 5579 5578 5578 5578 5578 5578 5577 5576 5576 5576 5577 5577 5575 5572 5570 5570 5570 5570 5570 5567 5565 5563 5562 5561
5579 5579 5578 5578 5577 5576 5574 5574 5574 5573 5573 5572 5572 5573 5573 5573 5573 5573 5572 5572 5571 5570 5570 5570 5571 5569 5567 5565 5564 5563 5562 5562 5562 5562 5561 5560 5556 5555
5572 5571 5571 5570 5569 5568 5567 5567 5566 5566 5565 5566 5566 5566 5567 5567 5566 5566 5566 5565 5564 5564 5563 5562 5562 5561 5560 5559 5557 5556 5555 5554 5553 5552 5552 5552 5552 5552